"Time","Temp","Dewpoint","Humidity","Pressure","Direction","Speed","Gust","Precip","PrecipRate"
"00:04:56","32.7","23.3","68","30.37","335","2.4","6","0.00","0.00"
"00:09:59","32.6","23.2","68","30.37","336","1.2","3.5","0.00","0.00"
"00:14:57","32.4","23.3","68.9","30.37","324","2.3","7.2","0.00","0.00"
"00:19:57","32.2","23.2","69","30.37","316","2.6","4.8","0.00","0.00"
"00:24:57","32.2","23.2","69","30.37","338","2.4","4.8","0.00","0.00"
"00:29:55","32.1","23.1","69","30.37","341","2.6","4.8","0.00","0.00"
"00:34:56","32","23","69.2","30.36","318","2.4","4.6","0.00","0.00"
"00:39:57","31.9","23.1","69.9","30.36","316","2","3.6","0.00","0.00"
"00:44:58","31.7","23","70","30.37","315","0.4","2.4","0.00","0.00"
"00:49:58","31.3","22.7","70.2","30.37","315","0.5","1.2","0.00","0.00"
"00:54:57","31","22.7","71","30.37","315","0.1","1.2","0.00","0.00"
"00:59:58","30.8","22.6","71.5","30.37","315","0","0","0.00","0.00"
"01:04:58","30.5","22.7","72.5","30.37","314","1.5","3.6","0.00","0.00"
"01:09:57","30.6","23","73","30.37","314","1.8","3.6","0.00","0.00"
"01:14:58","30.6","23","73","30.37","315","1.8","2.4","0.00","0.00"
"01:19:59","30.4","22.8","73","30.36","315","1","3.6","0.00","0.00"
"01:24:56","30.3","22.8","73.4","30.36","315","0.6","2.4","0.00","0.00"
"01:29:57","30.1","22.8","74","30.36","315","1.6","3.6","0.00","0.00"
"01:34:59","30","22.7","74","30.36","315","0.5","2.4","0.00","0.00"
"01:39:59","29.8","22.8","74.8","30.36","315","1.1","2.4","0.00","0.00"
"01:44:57","29.8","22.8","75","30.37","306","1.2","3.6","0.00","0.00"
"01:49:57","30.1","23.1","75","30.37","295","2.6","6","0.00","0.00"
"01:54:58","30.7","23.6","74.5","30.37","322","2.5","4.8","0.00","0.00"
"01:59:58","31","23.7","74","30.38","315","1.1","3.6","0.00","0.00"
"02:04:59","31","23.7","74","30.38","295","2.1","8.4","0.00","0.00"
"02:09:58","31.1","23.7","73.7","30.38","279","2.1","4.8","0.00","0.00"
"02:14:59","31.2","23.5","73","30.38","276","2.1","4.8","0.00","0.00"
"02:19:56","31.2","23.5","73","30.37","326","1.8","3.6","0.00","0.00"
"02:24:56","31","23.4","73","30.37","308","2.4","4.8","0.00","0.00"
"02:29:56","31","23.4","73.2","30.37","281","1.3","3.5","0.00","0.00"
"02:34:57","30.9","23.3","73","30.37","281","1.8","3.6","0.00","0.00"
"02:39:59","30.7","23.3","73.7","30.37","281","1","2.4","0.00","0.00"
"02:44:59","30.4","23.1","74","30.37","281","0.2","2.3","0.00","0.00"
"02:49:56","30.1","22.9","74.2","30.36","281","0","0","0.00","0.00"
"02:54:57","29.7","22.7","74.9","30.36","281","0","0","0.00","0.00"
"02:59:58","29.3","22.6","75.9","30.37","281","0","1.2","0.00","0.00"
"03:04:57","29","22.5","76.4","30.37","281","0","1.2","0.00","0.00"
"03:09:56","28.8","22.5","77","30.37","281","0","1.2","0.00","0.00"
"03:14:57","28.8","22.5","77","30.38","281","0","0","0.00","0.00"
"03:19:57","28.8","22.5","77","30.38","281","0","0","0.00","0.00"
"03:24:59","28.6","22.5","77.8","30.38","281","0","0","0.00","0.00"
"03:29:59","28.4","22.4","78","30.38","281","0","0","0.00","0.00"
"03:34:57","28.3","22.6","78.9","30.38","281","0","0","0.00","0.00"
"03:39:58","28.2","22.5","79","30.38","281","0","0","0.00","0.00"
"03:44:58","28","22.3","79","30.38","281","0","0","0.00","0.00"
"03:49:59","27.9","22.3","79.3","30.38","281","0","0","0.00","0.00"
"03:54:59","27.9","22.4","79.7","30.38","281","0","0","0.00","0.00"
"03:59:59","27.8","22.3","79.6","30.38","281","0","0","0.00","0.00"
"04:04:56","27.7","22.3","80","30.37","281","0","0","0.00","0.00"
"04:09:56","27.6","22.2","80","30.37","281","0","0","0.00","0.00"
"04:14:56","27.4","22","80","30.37","281","0","0","0.00","0.00"
"04:19:56","27","21.7","80.2","30.37","281","0","0","0.00","0.00"
"04:24:57","26.6","21.7","81.5","30.37","281","0","0","0.00","0.00"
"04:29:57","26.3","21.7","82.8","30.37","281","0","0","0.00","0.00"
"04:34:57","26.1","21.6","83","30.37","281","0","0","0.00","0.00"
"04:39:58","26.1","21.9","83.9","30.37","281","0","0","0.00","0.00"
"04:44:59","26.3","22","83.6","30.37","281","0","0","0.00","0.00"
"04:49:57","26.3","21.8","83","30.37","281","0","0","0.00","0.00"
"04:54:58","26.3","21.8","83","30.37","281","0","0","0.00","0.00"
"04:59:59","26.1","21.6","83","30.37","281","0","0","0.00","0.00"
"05:04:59","26","21.5","83","30.37","281","0","0","0.00","0.00"
"05:09:59","25.8","21.3","83","30.37","281","0","0","0.00","0.00"
"05:14:59","25.7","21.3","83.2","30.37","281","0","0","0.00","0.00"
"05:19:56","25.5","21.3","84","30.37","281","0","0","0.00","0.00"
"05:24:56","25.2","21","84","30.37","281","0","0","0.00","0.00"
"05:29:56","25","20.9","84.3","30.37","281","0","0","0.00","0.00"
"05:34:57","24.8","20.9","85","30.37","281","0","0","0.00","0.00"
"05:39:57","24.6","20.7","85.1","30.37","281","0","0","0.00","0.00"
"05:44:57","24.5","20.9","86","30.37","281","0","0","0.00","0.00"
"05:49:58","24.5","20.9","86","30.37","281","0","0","0.00","0.00"
"05:54:59","24.5","20.9","86","30.37","281","0","0","0.00","0.00"
"05:59:59","24.4","20.8","86","30.37","281","0","0","0.00","0.00"
"06:04:59","24.4","20.8","86","30.37","281","0","0","0.00","0.00"
"06:09:56","24.4","20.8","86","30.37","281","0","0","0.00","0.00"
"06:14:56","24.3","20.7","86","30.37","281","0","0","0.00","0.00"
"06:19:56","24.1","20.5","86","30.37","281","0","0","0.00","0.00"
"06:24:57","23.9","20.3","86","30.37","281","0","0","0.00","0.00"
"06:29:57","23.7","20.3","86.5","30.37","281","0","0","0.00","0.00"
"06:34:57","23.6","20.3","87","30.37","281","0","0","0.00","0.00"
"06:39:58","23.5","20.3","87.3","30.37","281","0","0","0.00","0.00"
"06:44:57","23.6","20.5","87.5","30.37","281","0","0","0.00","0.00"
"06:49:58","23.6","20.3","87","30.37","281","0","0","0.00","0.00"
"06:54:58","23.5","20.2","87","30.37","281","0","0","0.00","0.00"
"06:59:58","23.4","20.1","87.2","30.37","281","0","0","0.00","0.00"
"07:04:59","23.2","20.2","88","30.37","281","0","0","0.00","0.00"
"07:09:59","23.1","20.1","88","30.37","281","0","0","0.00","0.00"
"07:14:59","23","20","88","30.38","281","0","0","0.00","0.00"
"07:19:59","22.9","19.9","88","30.38","281","0","0","0.00","0.00"
"07:24:56","22.9","19.9","88","30.38","281","0","0","0.00","0.00"
"07:29:56","22.7","19.8","88.5","30.39","281","0","0","0.00","0.00"
"07:34:57","22.6","19.6","88.4","30.39","281","0","0","0.00","0.00"
"07:39:58","22.4","19.6","88.8","30.39","281","0","0","0.00","0.00"
"07:44:58","22.4","19.6","89","30.39","281","0","0","0.00","0.00"
"07:49:58","22.4","19.6","89","30.39","281","0","0","0.00","0.00"
"07:54:58","22.4","19.9","90","30.39","281","0","0","0.00","0.00"
"07:59:56","22.4","19.9","90","30.40","281","0","0","0.00","0.00"
"08:04:57","22.6","20.1","90","30.40","281","0","0","0.00","0.00"
"08:09:57","22.8","20.3","90","30.40","281","0","0","0.00","0.00"
"08:14:57","23","20.5","90","30.40","281","0","0","0.00","0.00"
"08:19:56","23.2","20.8","90.2","30.39","281","0","0","0.00","0.00"
"08:24:56","23.6","21.3","90.9","30.39","281","0","0","0.00","0.00"
"08:29:57","24","21.8","91","30.39","281","0","0","0.00","0.00"
"08:34:59","24.6","22.3","91","30.39","281","0","0","0.00","0.00"
"08:39:59","25.2","22.7","90.1","30.39","281","0","0","0.00","0.00"
"08:44:59","25.7","23.1","89.9","30.39","281","0","0","0.00","0.00"
"08:49:59","26.2","23.5","89.3","30.39","281","0","0","0.00","0.00"
"08:54:56","26.7","23.9","89","30.39","281","0","0","0.00","0.00"
"08:59:56","27.2","24.2","88.4","30.39","281","0","0","0.00","0.00"
"09:04:56","27.6","24.4","87.9","30.39","281","0","0","0.00","0.00"
"09:09:56","28.1","24.7","87","30.39","281","0","0","0.00","0.00"
"09:14:56","28.6","25.2","87","30.40","277","0.2","2.4","0.00","0.00"
"09:19:56","29.2","25.6","86.3","30.40","277","0","0","0.00","0.00"
"09:24:56","29.9","26","85.1","30.40","277","0","0","0.00","0.00"
"09:29:56","30.8","26.5","84","30.40","273","0","0","0.00","0.00"
"09:34:56","31.6","26.7","81.9","30.40","243","0","0","0.00","0.00"
"09:39:56","32.3","27","80.6","30.40","243","0","0","0.00","0.00"
"09:44:56","33","27.2","79","30.40","242","0","0","0.00","0.00"
"09:49:56","33.4","27.4","78.2","30.40","240","0.1","2.4","0.00","0.00"
"09:54:59","33.9","27.6","77.4","30.40","239","0.3","2.4","0.00","0.00"
"09:59:59","34.5","28.1","77.3","30.40","239","1","2.4","0.00","0.00"
"10:04:56","35","28.3","76.5","30.39","239","0","2.3","0.00","0.00"
"10:09:56","35.4","28.5","75.9","30.39","238","0","0","0.00","0.00"
"10:14:56","35.7","28.4","74.5","30.40","204","0.5","2.4","0.00","0.00"
"10:19:59","35.9","28.5","74.2","30.40","130","2.1","4.8","0.00","0.00"
"10:24:59","36","28.4","73.8","30.40","129","1.5","3.6","0.00","0.00"
"10:29:59","36.3","28.6","73.5","30.40","129","1.2","3.6","0.00","0.00"
"10:34:59","36.4","28.3","72.2","30.38","129","1.4","3.6","0.00","0.00"
"10:39:59","36.7","28.4","71.7","30.38","129","1.2","2.4","0.00","0.00"
"10:44:59","37.2","28.3","70.1","30.38","129","2.2","3.6","0.00","0.00"
"10:49:58","37.3","28.5","70.2","30.38","128","2.1","3.6","0.00","0.00"
"10:54:58","37.4","28.4","69.7","30.38","128","1.3","2.4","0.00","0.00"
"10:59:57","37.6","28.9","70.5","30.38","158","2.1","4.8","0.00","0.00"
"11:04:57","38","29","70","30.38","173","1.5","3.6","0.00","0.00"
"11:09:56","38.4","29.2","69.2","30.38","169","1.3","3.6","0.00","0.00"
"11:14:56","38.4","29","68.6","30.38","164","1.1","3.6","0.00","0.00"
"11:19:32","38.7","29.3","68.6","30.36","159","1.4","3.6","0.00","0.00"
"11:24:56","39.1","29.5","68.1","30.36","150","2","3.6","0.00","0.00"
"11:29:59","39.4","29.7","68","30.36","142","1.2","3.6","0.00","0.00"
"11:34:59","39.3","29.2","66.8","30.35","154","2.5","4.8","0.00","0.00"
"11:39:59","39","29","67.2","30.35","162","1.7","3.6","0.00","0.00"
"11:44:58","39.4","29.6","67.6","30.35","162","0.5","2.3","0.00","0.00"
"11:49:57","39.8","29.7","66.9","30.35","162","1.3","3.6","0.00","0.00"
"11:54:57","40","29.4","65.7","30.35","163","2.5","4.8","0.00","0.00"
"11:59:57","40","29.6","66.2","30.35","117","2.1","4.8","0.00","0.00"
"12:04:57","40.2","29.5","65.4","30.34","117","1.6","4.8","0.00","0.00"
"12:09:56","40","29.4","65.4","30.34","103","2.9","6","0.00","0.00"
"12:14:56","40.1","29.7","66.4","30.34","107","2.7","7.2","0.00","0.00"
"12:19:56","40.1","29.2","64.9","30.33","134","3.5","6.9","0.00","0.00"
"12:24:59","40.1","29.1","64.5","30.33","150","2.4","6","0.00","0.00"
"12:29:59","40.5","29.6","65.1","30.33","159","3.2","6","0.00","0.00"
"12:34:59","40.6","29.1","63.2","30.32","161","3.3","6","0.00","0.00"
"12:39:59","40.7","29.4","64.1","30.32","181","3.1","8.4","0.00","0.00"
"12:44:58","40.7","29.5","63.9","30.32","205","4.9","8.4","0.00","0.00"
"12:49:57","40.7","29.5","64.1","30.31","156","2.5","8.1","0.00","0.00"
"12:54:57","40.7","29.2","63.3","30.31","135","4.5","8.4","0.00","0.00"
"12:59:56","40.5","29.2","63.8","30.31","173","3.1","7.2","0.00","0.00"
"13:04:56","40.6","29.4","64.2","30.30","141","3.4","8.4","0.00","0.00"
"13:09:59","40.5","29.5","64.3","30.30","146","3.7","7.2","0.00","0.00"
"13:14:59","40.6","29.5","64.3","30.30","146","3.3","6","0.00","0.00"
"13:19:59","40.7","29.8","64.7","30.29","154","2.3","7.2","0.00","0.00"
"13:24:59","40.9","29.8","64.2","30.29","167","3.7","8.4","0.00","0.00"
"13:29:58","41.1","29.6","63.3","30.29","205","5.3","12","0.00","0.00"
"13:34:57","41.3","29.6","63.1","30.29","203","5.5","12","0.00","0.00"
"13:39:56","41","29.1","62.2","30.29","179","5.3","12","0.00","0.00"
"13:44:59","40.7","28.8","62.2","30.29","181","5.3","12","0.00","0.00"
"13:49:57","40.4","28.7","62.8","30.29","168","4.2","12","0.00","0.00"
"13:54:58","40.4","29","63.6","30.29","177","3","8.4","0.00","0.00"
"13:59:54","40.5","29.4","64.4","30.29","204","4.5","8.4","0.00","0.00"
"14:04:58","40.4","29.2","64","30.28","204","6.3","16.8","0.00","0.00"
"14:09:56","40.2","29","63.9","30.28","196","5.5","17.3","0.00","0.00"
"14:14:56","40","28.9","64.2","30.29","198","5.1","13.2","0.00","0.00"
"14:19:59","39.9","28.8","64.2","30.29","180","4.8","13.2","0.00","0.00"
"14:24:58","39.8","28.7","64.4","30.29","170","4","12.7","0.00","0.00"
"14:29:58","39.7","28.9","65","30.29","175","3.3","10.8","0.00","0.00"
"14:34:58","39.6","28.8","65","30.27","179","3.6","10.8","0.00","0.00"
"14:39:57","39.5","28.8","65.1","30.27","182","5","10.8","0.00","0.00"
"14:42:06","39.4","28.7","65.1","30.27","157","4","7.2","0.00","0.00"
"15:09:56","39.3","28.9","66","30.26","153","3.8","6.9","0.00","0.00"
"15:14:57","39.3","29.2","66.8","30.26","178","2.7","8.4","0.00","0.00"
"15:19:57","39.3","29.2","66.7","30.26","179","2.8","6","0.00","0.00"
"15:24:57","39.3","29.2","66.7","30.26","195","2.8","7.2","0.00","0.00"
"15:29:56","39.3","28.9","66.1","30.26","157","2.9","6.9","0.00","0.00"
"15:34:56","39.3","29.2","66.7","30.26","186","2.4","4.8","0.00","0.00"
"15:39:58","39.3","29.1","66.6","30.26","209","3.6","7.2","0.00","0.00"
"15:44:57","39.3","29","66.2","30.26","202","3.9","8.4","0.00","0.00"
"15:49:57","39.2","29","66.3","30.24","211","3.4","10.8","0.00","0.00"
"15:54:59","39.2","28.9","66.2","30.24","154","2.1","4.8","0.00","0.00"
"15:59:57","39.2","29.1","66.7","30.24","182","3.2","8.4","0.00","0.00"
"16:04:57","39.2","28.8","65.8","30.24","168","3.7","8.4","0.00","0.00"
"16:09:59","39.2","28.9","66.2","30.24","190","2.8","6","0.00","0.00"
"16:14:58","39.2","28.8","66","30.24","159","2.4","7.2","0.00","0.00"
"16:19:59","39.2","28.9","66.3","30.23","162","2.7","7.2","0.00","0.00"
"16:24:58","39.2","28.8","66","30.23","189","4.3","7.2","0.00","0.00"
"16:29:56","39.1","28.8","66.1","30.23","153","2.6","6","0.00","0.00"
"16:34:59","39.1","28.8","66.3","30.23","152","2.8","6","0.00","0.00"
"16:39:58","39.1","28.8","66.2","30.23","188","3.1","6","0.00","0.00"
"16:44:57","39","28.7","66.2","30.23","164","2.6","6","0.00","0.00"
"16:49:56","39","28.8","66.5","30.23","132","1.5","4.8","0.00","0.00"
"16:54:59","39","29","66.8","30.23","135","2","7.2","0.00","0.00"
"16:59:58","39","28.9","66.7","30.23","154","1.9","6.9","0.00","0.00"
"17:04:58","39","28.8","66.5","30.21","137","1.8","4.8","0.00","0.00"
"17:09:57","39","28.8","66.6","30.21","156","2.6","4.8","0.00","0.00"
"17:14:56","39","28.7","66.3","30.21","158","3.1","6","0.00","0.00"
"17:19:56","39","28.8","66.5","30.21","163","3","6","0.00","0.00"
"17:24:58","38.9","28.6","66.1","30.21","163","3.1","6","0.00","0.00"
"17:29:57","38.9","28.8","66.7","30.21","175","2.3","5.8","0.00","0.00"
"17:34:59","38.9","28.9","67","30.21","180","2.5","4.8","0.00","0.00"
"17:39:58","38.8","28.8","67","30.21","192","2.8","7.2","0.00","0.00"
"17:44:56","38.8","28.8","67","30.22","186","2.4","4.8","0.00","0.00"
"17:49:48","38.8","28.8","67","30.22","190","3.5","6","0.00","0.00"
"17:54:59","38.7","28.7","67.2","30.22","186","3.1","7.2","0.00","0.00"
"17:59:58","38.7","28.8","67.4","30.22","192","3.5","8.4","0.00","0.00"
"18:04:57","38.6","28.9","67.8","30.22","201","3","8.1","0.00","0.00"
"18:09:56","38.6","28.8","67.7","30.22","190","3.1","7.2","0.00","0.00"
"18:14:59","38.6","28.9","68","30.22","181","2.1","4.8","0.00","0.00"
"18:19:56","38.6","28.9","68","30.22","159","2.2","4.8","0.00","0.00"
"18:24:56","38.6","28.9","68","30.22","177","2.3","6","0.00","0.00"
"18:29:59","38.6","28.9","68","30.23","182","2.3","4.8","0.00","0.00"
"18:34:58","38.5","29","68.2","30.23","163","2.7","4.8","0.00","0.00"
"18:39:57","38.5","29","68.2","30.23","142","1.8","4.6","0.00","0.00"
"18:44:56","38.5","29","68.5","30.23","160","2.3","7.2","0.00","0.00"
"18:49:56","38.5","28.9","68","30.21","142","3","8.4","0.00","0.00"
"18:54:59","38.5","29","68.4","30.21","139","3.2","7.2","0.00","0.00"
"18:59:58","38.5","29.2","68.9","30.21","167","3","7.2","0.00","0.00"
"19:04:58","38.5","29.2","69","30.20","152","2","6.9","0.00","0.00"
"19:09:57","38.5","29.3","69.2","30.20","162","2.2","4.8","0.00","0.00"
"19:14:56","38.5","29.2","69","30.20","174","1.8","4.6","0.00","0.00"
"19:19:56","38.5","29.2","69","30.20","143","2.4","6","0.00","0.00"
"19:24:56","38.5","29.2","69","30.20","124","2.6","7.2","0.00","0.00"
"19:29:56","38.5","29.2","69","30.20","173","3.3","9.6","0.00","0.00"
"19:34:56","38.5","29.3","69.2","30.20","177","3.8","9.2","0.00","0.00"
"19:39:59","38.5","29.3","69.2","30.20","173","3.6","7.2","0.00","0.00"
"19:44:58","38.5","29.5","69.9","30.20","187","2.5","4.8","0.00","0.00"
"19:49:57","38.4","29.5","70","30.20","165","2.4","4.8","0.00","0.00"
"19:54:56","38.4","29.8","71","30.20","189","4.5","12","0.00","0.00"
"19:59:58","38.2","30","71.9","30.20","181","4.6","12","0.00","0.00"
"20:04:58","38.1","30.1","72.8","30.20","199","4.7","12","0.00","0.00"
"20:09:57","38","30.2","73.2","30.20","173","2.8","6.9","0.00","0.00"
"20:14:56","37.9","30.4","74","30.20","191","4.3","15","0.00","0.00"
"20:19:59","37.8","30.4","74.5","30.18","195","5.1","11.5","0.00","0.00"
"20:24:57","37.7","30.5","75.1","30.18","201","3.6","10.8","0.00","0.00"
"20:29:56","37.5","30.7","76.1","30.18","198","5.7","12","0.00","0.00"
"20:34:56","37.3","31","77.6","30.18","199","4.3","9.6","0.00","0.00"
"20:39:56","37.2","31.2","78.8","30.18","195","4.6","8.4","0.00","0.00"
"20:44:58","36.9","31.3","80","30.18","194","5.3","12","0.00","0.00"
"20:49:58","36.6","31.4","81.4","30.17","195","4.8","10.8","0.00","0.00"
"20:54:58","36.4","31.4","82","30.17","183","3.2","6","0.00","0.00"
"20:59:56","36.3","31.4","82.3","30.17","192","4.3","8.4","0.00","0.00"
"21:04:56","36.2","31.5","83","30.17","196","3.9","8.4","0.00","0.00"
"21:09:59","36.1","31.4","83.1","30.17","181","3","7.2","0.00","0.00"
"21:14:58","36.1","31.7","84","30.17","186","3.4","8.4","0.00","0.00"
"21:19:58","36","31.6","84","30.17","191","4.8","12","0.00","0.00"
"21:24:57","35.9","31.6","84.4","30.17","177","3.7","13.2","0.00","0.00"
"21:29:56","35.9","31.8","85","30.17","167","4.5","12.7","0.00","0.00"
"21:34:56","35.9","31.8","85","30.15","182","4.2","7.2","0.00","0.00"
"21:39:59","35.8","31.7","85","30.15","185","3.7","7.2","0.00","0.00"
"21:44:58","35.8","31.8","85.6","30.15","169","2.5","5.8","0.00","0.00"
"21:49:58","35.7","31.9","86","30.13","159","3","7.2","0.00","0.00"
"21:54:57","35.7","31.9","86","30.13","184","2.7","6","0.00","0.00"
"21:59:57","35.7","31.9","86","30.14","148","1.8","4.8","0.00","0.00"
"22:04:56","35.6","32.1","86.8","30.14","203","3.2","7.2","0.00","0.00"
"22:09:59","35.6","32.1","87","30.14","190","2.8","6","0.00","0.00"
"22:14:59","35.5","32","87","30.14","205","1.9","3.6","0.00","0.00"
"22:19:59","35.5","32","87","30.13","205","1.5","3.6","0.00","0.00"
"22:24:56","35.5","32","87","30.13","145","1.9","8.4","0.00","0.00"
"22:29:59","35.5","32.2","87.8","30.13","155","3.4","7.2","0.00","0.00"
"22:34:56","35.5","32.3","88","30.13","173","3.2","7.2","0.00","0.00"
"22:39:59","35.5","32.3","88","30.13","189","4.5","8.4","0.00","0.00"
"22:44:58","35.4","32.2","88","30.13","192","2.5","8.1","0.00","0.00"
"22:49:58","35.4","32.2","88","30.12","165","1.4","4.8","0.00","0.00"
"22:54:57","35.4","32.4","88.7","30.12","175","2.6","6","0.00","0.00"
"22:59:57","35.4","32.5","89","30.12","195","3","7.2","0.00","0.00"
"23:04:56","35.4","32.5","89","30.12","186","2.1","6","0.00","0.00"
"23:09:59","35.4","32.5","89","30.12","186","4.8","10.8","0.00","0.00"
"23:14:59","35.4","32.5","89","30.12","191","2.8","8.4","0.00","0.00"
"23:19:56","35.4","32.5","89","30.11","202","4.7","8.4","0.00","0.00"
"23:24:59","35.4","32.5","89","30.11","187","3.7","7.2","0.00","0.00"
"23:29:58","35.4","32.5","89","30.11","190","3.7","7.2","0.00","0.00"
"23:34:58","35.4","32.5","89","30.10","184","2.9","6.9","0.00","0.00"
"23:39:58","35.4","32.5","89","30.10","183","2.5","6","0.00","0.00"
"23:44:53","35.4","32.5","89","30.10","193","4","8.4","0.00","0.00"
